Precipitable_Water
0.56 0.54 0.56 0.44 0.32 0.35 0.34 0.39 0.51 0.54 0.58 0.72 0.80 0.72 0.68 0.72 0.63 0.52 1.18 1.25 1.27 1.21 1.27 1.33 1.30 1.27 1.26 1.23 1.17 1.19 1.21 1.21 1.22 1.19 1.14 1.10 1.06 1.04 1.06 1.07 1.07 1.06 1.06 1.04 1.00 0.96 0.93 0.92 0.92
0.56 0.51 0.47 0.40 0.33 0.32 0.37 0.45 0.44 0.52 0.69 0.77 0.74 0.65 0.57 0.47 0.68 0.78 0.96 1.18 1.25 1.24 1.24 1.25 1.24 1.23 1.21 1.20 1.17 1.17 1.19 1.18 1.18 1.13 1.12 1.07 1.04 1.04 1.07 1.09 1.09 1.08 1.08 1.08 1.05 1.01 0.98 0.94 0.93
0.55 0.53 0.36 0.37 0.35 0.31 0.35 0.43 0.52 0.65 0.77 0.74 0.72 0.84 0.75 0.56 0.73 0.83 1.06 1.18 1.22 1.21 1.24 1.25 1.24 1.22 1.21 1.20 1.19 1.19 1.20 1.20 1.19 1.17 1.15 1.10 1.08 1.09 1.15 1.13 1.10 1.09 1.09 1.07 1.03 0.99 0.99 0.97 0.94
0.51 0.42 0.42 0.32 0.31 0.36 0.39 0.43 0.57 0.69 0.69 0.79 0.80 0.68 0.90 1.07 0.85 0.98 1.11 1.18 1.11 1.16 1.27 1.31 1.32 1.31 1.30 1.27 1.26 1.24 1.22 1.23 1.21 1.19 1.19 1.16 1.16 1.17 1.17 1.16 1.11 1.09 1.09 1.10 1.04 1.01 0.99 0.99 0.98
0.52 0.42 0.32 0.31 0.32 0.36 0.40 0.44 0.45 0.54 0.49 0.61 0.65 0.56 0.70 1.02 1.20 1.14 1.10 1.13 1.03 1.10 1.23 1.30 1.32 1.34 1.33 1.32 1.33 1.30 1.27 1.27 1.24 1.24 1.25 1.24 1.24 1.21 1.18 1.16 1.14 1.12 1.09 1.06 1.03 0.97 0.97 1.02 1.03
0.43 0.45 0.32 0.27 0.30 0.36 0.40 0.43 0.46 0.49 0.59 0.61 0.60 0.61 0.72 1.18 1.11 1.14 1.12 1.05 1.05 1.05 1.16 1.21 1.25 1.27 1.27 1.29 1.28 1.28 1.24 1.23 1.24 1.26 1.27 1.26 1.23 1.21 1.19 1.20 1.19 1.19 1.14 1.10 0.99 0.90 0.87 0.98 1.06
0.42 0.40 0.32 0.32 0.29 0.30 0.34 0.40 0.40 0.48 0.52 0.55 0.70 0.57 0.81 1.01 1.17 1.12 1.09 1.08 1.07 1.10 1.10 1.12 1.18 1.26 1.31 1.32 1.32 1.33 1.33 1.31 1.29 1.28 1.27 1.24 1.24 1.21 1.22 1.21 1.22 1.23 1.17 1.12 1.00 0.84 0.75 0.92 1.04
0.46 0.41 0.32 0.32 0.28 0.28 0.35 0.36 0.37 0.42 0.49 0.73 0.75 0.48 0.52 0.85 1.09 1.09 1.09 1.04 1.05 1.06 1.08 1.11 1.21 1.28 1.32 1.36 1.35 1.35 1.35 1.33 1.31 1.30 1.30 1.29 1.26 1.22 1.22 1.23 1.21 1.26 1.24 1.20 1.09 0.91 0.79 0.86 1.03
0.47 0.34 0.29 0.30 0.29 0.31 0.38 0.36 0.37 0.39 0.47 0.56 0.69 0.64 0.70 0.91 1.05 1.00 0.98 0.98 1.00 1.02 1.05 1.09 1.14 1.22 1.30 1.34 1.36 1.34 1.35 1.33 1.33 1.33 1.33 1.30 1.27 1.24 1.25 1.25 1.23 1.25 1.24 1.22 1.16 1.01 0.87 0.83 1.02
0.37 0.32 0.33 0.38 0.39 0.35 0.37 0.37 0.35 0.33 0.33 0.36 0.48 0.69 0.79 0.89 0.91 0.87 0.83 0.82 0.92 0.95 1.03 1.09 1.10 1.14 1.22 1.28 1.31 1.33 1.35 1.36 1.35 1.33 1.32 1.32 1.30 1.27 1.26 1.25 1.23 1.25 1.25 1.25 1.22 1.12 0.98 0.88 0.89
0.39 0.31 0.40 0.42 0.44 0.42 0.38 0.37 0.39 0.35 0.31 0.35 0.36 0.48 0.67 0.78 0.83 0.83 0.83 0.84 0.89 0.99 1.03 1.10 1.13 1.17 1.19 1.22 1.29 1.31 1.31 1.30 1.29 1.30 1.29 1.27 1.26 1.26 1.27 1.26 1.23 1.24 1.27 1.27 1.28 1.19 1.07 0.93 0.86
0.29 0.36 0.40 0.43 0.47 0.45 0.39 0.40 0.37 0.37 0.37 0.43 0.43 0.53 0.64 0.68 0.75 0.73 0.76 0.81 0.89 0.93 1.00 1.12 1.17 1.18 1.25 1.31 1.28 1.27 1.25 1.27 1.25 1.25 1.25 1.25 1.25 1.26 1.30 1.34 1.38 1.40 1.37 1.29 1.25 1.20 1.10 1.01 0.94
0.38 0.36 0.38 0.45 0.48 0.48 0.47 0.41 0.38 0.37 0.43 0.46 0.52 0.59 0.59 0.66 0.74 0.84 0.88 0.89 0.89 0.92 1.00 1.11 1.23 1.24 1.22 1.20 1.24 1.26 1.23 1.23 1.24 1.26 1.30 1.35 1.39 1.39 1.42 1.40 1.38 1.37 1.37 1.32 1.30 1.25 1.16 1.09 1.01
0.44 0.43 0.41 0.43 0.45 0.47 0.43 0.41 0.42 0.41 0.46 0.49 0.54 0.54 0.60 0.64 0.71 0.81 0.82 0.81 0.85 0.94 1.01 1.16 1.22 1.28 1.28 1.24 1.22 1.20 1.23 1.26 1.34 1.37 1.40 1.44 1.44 1.41 1.36 1.35 1.37 1.37 1.34 1.33 1.32 1.30 1.23 1.14 1.15
0.47 0.37 0.40 0.41 0.43 0.40 0.45 0.36 0.35 0.43 0.46 0.44 0.49 0.52 0.58 0.67 0.78 0.72 0.75 0.81 0.89 0.97 1.06 1.14 1.23 1.29 1.28 1.22 1.20 1.23 1.30 1.35 1.36 1.37 1.43 1.48 1.52 1.51 1.50 1.46 1.43 1.42 1.40 1.38 1.33 1.34 1.25 1.21 1.15
0.40 0.40 0.30 0.39 0.42 0.43 0.41 0.30 0.40 0.43 0.41 0.39 0.40 0.50 0.59 0.65 0.69 0.78 0.85 0.91 0.97 1.00 1.02 1.16 1.26 1.26 1.26 1.24 1.26 1.29 1.34 1.33 1.37 1.41 1.41 1.40 1.42 1.40 1.34 1.34 1.37 1.43 1.44 1.42 1.39 1.38 1.36 1.25 1.18
0.40 0.30 0.32 0.35 0.40 0.39 0.39 0.34 0.44 0.45 0.42 0.38 0.38 0.38 0.49 0.57 0.69 0.78 0.86 0.93 0.95 1.00 1.07 1.13 1.25 1.23 1.27 1.32 1.35 1.36 1.38 1.38 1.39 1.41 1.39 1.37 1.30 1.31 1.27 1.24 1.29 1.33 1.24 1.26 1.30 1.33 1.35 1.24 1.23
0.33 0.34 0.35 0.33 0.40 0.40 0.36 0.35 0.41 0.43 0.41 0.39 0.40 0.40 0.44 0.48 0.53 0.62 0.70 0.84 0.93 0.99 1.09 1.18 1.28 1.30 1.33 1.39 1.40 1.40 1.41 1.40 1.46 1.37 1.32 1.29 1.23 1.19 1.20 1.18 1.17 1.27 1.22 1.19 1.17 1.13 1.15 1.19 1.21
0.45 0.41 0.37 0.38 0.43 0.40 0.38 0.36 0.39 0.41 0.40 0.40 0.42 0.43 0.44 0.46 0.54 0.64 0.69 0.74 0.80 0.95 1.03 1.15 1.23 1.31 1.34 1.34 1.27 1.29 1.29 1.30 1.31 1.26 1.14 1.11 1.08 1.09 1.03 1.01 1.06 1.16 1.10 1.11 1.04 0.95 0.95 0.94 1.08
0.46 0.39 0.36 0.39 0.43 0.40 0.38 0.35 0.39 0.40 0.40 0.42 0.43 0.43 0.44 0.46 0.53 0.64 0.73 0.79 0.83 0.89 1.00 1.14 1.26 1.31 1.37 1.39 1.39 1.38 1.35 1.28 1.07 1.04 0.89 0.86 0.89 0.93 0.91 0.90 0.89 0.96 0.96 1.00 0.96 0.94 0.92 0.91 0.97
0.42 0.38 0.35 0.35 0.38 0.39 0.37 0.33 0.37 0.42 0.43 0.43 0.42 0.44 0.44 0.44 0.48 0.61 0.70 0.80 0.89 0.92 1.03 1.17 1.30 1.39 1.43 1.46 1.42 1.33 1.11 0.85 0.73 0.71 0.75 0.83 0.88 0.90 0.89 0.89 0.89 0.87 0.89 0.82 0.82 0.92 0.89 0.84 0.93
0.37 0.42 0.40 0.38 0.36 0.32 0.40 0.27 0.36 0.39 0.39 0.40 0.40 0.43 0.45 0.50 0.59 0.68 0.73 0.81 0.91 1.02 1.17 1.27 1.37 1.40 1.45 1.40 1.31 0.91 0.65 0.59 0.63 0.63 0.69 0.76 0.80 0.77 0.73 0.70 0.70 0.76 0.77 0.75 0.77 0.88 0.87 0.86 0.80
0.39 0.45 0.41 0.40 0.39 0.37 0.36 0.31 0.34 0.38 0.34 0.36 0.40 0.45 0.51 0.58 0.65 0.71 0.78 0.84 0.95 1.08 1.18 1.28 1.35 1.37 1.33 1.11 0.75 0.67 0.62 0.60 0.61 0.64 0.68 0.73 0.76 0.72 0.69 0.66 0.64 0.66 0.71 0.74 0.77 0.78 0.78 0.85 0.87
0.46 0.43 0.43 0.43 0.39 0.28 0.33 0.32 0.28 0.31 0.33 0.38 0.43 0.48 0.55 0.62 0.72 0.82 0.90 0.95 0.97 1.08 1.13 1.18 1.18 1.04 0.82 0.72 0.70 0.64 0.59 0.58 0.62 0.65 0.67 0.70 0.71 0.69 0.67 0.68 0.67 0.66 0.66 0.68 0.70 0.71 0.76 0.75 0.79
0.47 0.42 0.32 0.28 0.27 0.25 0.34 0.28 0.29 0.37 0.41 0.43 0.44 0.49 0.58 0.68 0.74 0.77 0.79 0.83 0.87 0.89 0.90 0.84 0.75 0.67 0.68 0.66 0.65 0.64 0.64 0.66 0.66 0.64 0.64 0.63 0.62 0.60 0.64 0.67 0.64 0.66 0.69 0.71 0.73 0.73 0.74 0.74 0.77
0.45 0.44 0.35 0.25 0.25 0.27 0.37 0.27 0.30 0.42 0.47 0.51 0.52 0.53 0.60 0.65 0.71 0.72 0.72 0.72 0.72 0.69 0.69 0.68 0.66 0.64 0.66 0.68 0.69 0.71 0.71 0.69 0.66 0.67 0.65 0.63 0.57 0.56 0.61 0.64 0.63 0.65 0.70 0.69 0.71 0.70 0.71 0.72 0.69
0.45 0.40 0.47 0.37 0.36 0.29 0.31 0.33 0.39 0.44 0.46 0.50 0.51 0.54 0.57 0.63 0.67 0.66 0.65 0.64 0.65 0.66 0.66 0.67 0.67 0.67 0.69 0.70 0.70 0.68 0.68 0.68 0.66 0.68 0.67 0.58 0.53 0.53 0.59 0.64 0.64 0.65 0.70 0.70 0.69 0.67 0.67 0.70 0.70
0.49 0.51 0.39 0.40 0.28 0.23 0.27 0.28 0.29 0.36 0.40 0.45 0.48 0.51 0.58 0.66 0.68 0.68 0.67 0.67 0.69 0.71 0.72 0.71 0.69 0.66 0.67 0.69 0.69 0.69 0.69 0.69 0.68 0.69 0.62 0.58 0.54 0.54 0.59 0.64 0.65 0.64 0.68 0.69 0.67 0.64 0.67 0.67 0.69
0.50 0.46 0.46 0.47 0.41 0.29 0.24 0.24 0.39 0.40 0.43 0.43 0.47 0.52 0.57 0.62 0.65 0.68 0.68 0.70 0.71 0.72 0.68 0.65 0.64 0.63 0.62 0.64 0.64 0.64 0.66 0.69 0.71 0.67 0.63 0.59 0.56 0.52 0.53 0.60 0.65 0.65 0.67 0.69 0.67 0.67 0.69 0.66 0.66
0.53 0.48 0.48 0.39 0.36 0.38 0.35 0.22 0.44 0.46 0.47 0.48 0.50 0.55 0.59 0.64 0.67 0.70 0.71 0.72 0.71 0.69 0.61 0.59 0.60 0.60 0.60 0.62 0.64 0.65 0.69 0.72 0.69 0.65 0.63 0.62 0.58 0.54 0.53 0.58 0.59 0.62 0.65 0.69 0.67 0.67 0.67 0.66 0.63
Wind_Speed
3 4 4 3 2 2 4 4 2 1 2 2 2 1 2 2 3 5 2 4 3 5 7 9 10 9 9 9 8 7 5 4 3 1 1 2 3 3 4 5 5 5 5 5 6 6 6 5 5
3 4 3 4 3 3 2 3 3 3 2 3 1 1 2 3 1 1 4 3 3 6 7 8 9 10 10 9 8 7 6 4 3 2 1 2 2 3 4 4 5 5 5 5 5 5 6 6 6
3 4 4 4 4 4 4 3 2 4 4 1 2 2 2 1 1 3 2 4 4 6 6 7 9 9 9 9 8 7 6 5 4 3 2 2 3 4 4 5 5 6 6 6 6 5 6 6 6
4 4 3 3 3 4 5 4 4 4 3 2 1 2 2 1 2 2 4 5 5 6 5 7 8 8 8 8 8 7 7 6 5 5 4 4 5 5 5 6 7 7 8 8 7 7 7 7 7
3 5 4 2 2 2 3 3 4 5 3 2 3 3 1 1 1 3 5 5 6 5 5 6 6 7 7 7 7 7 7 7 7 7 6 6 6 7 7 8 9 9 9 10 10 10 10 10 9
4 4 4 2 2 3 3 4 2 3 3 2 2 1 2 1 3 4 6 6 5 5 4 4 5 6 7 7 8 8 8 8 8 9 9 9 9 9 10 11 11 11 12 12 13 12 12 12 11
5 3 4 4 3 2 2 4 2 2 3 3 1 2 0 2 3 4 5 4 3 4 4 4 5 6 7 7 8 8 9 9 10 10 11 11 11 12 13 13 14 14 14 15 15 15 15 14 13
4 3 2 3 3 3 2 3 2 3 3 2 2 1 1 4 5 4 4 3 3 3 4 5 6 6 7 7 8 9 10 10 11 12 12 13 13 14 14 15 16 16 17 17 17 18 17 17 16
5 3 3 3 3 5 4 4 5 4 3 4 4 4 3 5 6 5 5 4 3 4 5 6 6 7 8 9 9 10 10 11 12 12 13 14 15 16 17 17 18 18 19 19 20 20 20 20 19
6 6 7 6 5 7 8 6 7 5 4 6 6 4 3 5 7 7 7 6 5 5 5 6 7 8 9 10 10 11 12 12 13 14 15 16 16 18 19 19 20 21 21 22 23 23 22 22 22
9 10 9 8 8 7 8 8 8 8 7 8 8 7 6 7 8 9 8 8 8 8 8 9 9 10 11 11 12 12 13 13 14 15 16 17 18 19 20 21 22 22 23 24 25 25 25 24 24
11 13 12 11 10 10 10 10 10 10 11 10 11 9 9 9 11 11 10 10 9 9 9 10 10 11 11 12 13 14 14 15 16 17 18 18 19 20 21 21 22 23 24 25 26 27 26 26 26
12 13 13 15 15 14 14 15 14 14 14 11 9 10 11 12 13 12 11 11 11 10 10 10 10 10 11 12 14 15 15 16 17 18 19 19 20 21 22 24 25 26 26 27 27 27 27 27 27
12 14 16 16 17 16 15 17 14 16 13 12 11 13 13 14 14 13 13 12 12 12 12 11 11 10 11 12 13 14 16 17 18 18 19 20 21 23 25 26 27 28 28 29 28 29 29 29 29
14 15 14 15 14 15 14 14 18 17 15 15 15 15 15 14 14 15 14 13 13 13 13 12 11 11 12 11 12 13 15 17 18 19 20 21 24 26 27 28 29 30 31 31 31 30 31 30 30
13 12 12 13 12 11 11 14 10 11 11 12 13 14 14 15 15 15 15 15 15 14 14 13 12 12 13 13 13 14 16 16 17 18 20 23 24 27 29 30 31 32 32 33 33 34 35 35 34
12 13 13 13 10 10 10 12 11 10 10 12 12 12 13 15 15 17 17 17 17 17 16 15 15 14 14 15 16 16 16 17 18 20 23 25 26 28 29 31 32 33 33 34 34 35 37 37 37
12 12 13 14 13 13 12 14 14 13 13 15 15 14 14 14 16 16 18 20 19 19 18 18 17 17 17 17 17 18 20 20 22 24 25 26 28 30 31 32 33 34 35 35 35 34 35 36 37
12 12 14 15 15 14 14 15 17 16 16 18 18 17 17 18 17 17 18 19 20 20 20 20 19 19 19 19 19 20 21 23 24 26 27 29 30 32 33 34 35 35 36 36 35 35 34 34 35
13 13 14 15 13 13 15 18 19 18 19 19 19 19 20 18 18 18 19 19 19 20 20 20 21 21 20 20 20 22 23 24 26 27 28 30 32 35 36 37 38 38 38 38 38 36 36 36 35
13 12 12 13 13 12 14 16 14 15 16 18 18 17 17 17 17 18 18 18 18 19 20 21 21 20 21 21 21 23 25 25 26 29 31 34 36 38 39 40 40 40 39 40 40 38 37 35 36
11 12 11 11 10 12 11 13 14 15 16 16 17 16 16 16 17 18 17 17 17 18 18 19 20 21 21 22 23 24 25 26 29 32 35 36 38 40 41 41 40 39 39 39 39 38 37 36 35
12 10 10 12 12 13 12 13 14 14 17 16 14 15 16 17 18 17 17 16 16 16 17 18 19 20 21 22 23 25 27 30 32 35 37 39 40 41 41 40 39 39 39 39 39 38 37 37 36
10 10 10 12 12 14 15 15 15 13 12 13 15 18 19 19 18 18 17 16 16 16 17 17 18 20 21 23 26 28 30 33 36 38 40 41 41 42 41 40 39 38 38 37 37 36 35 36 36
11 11 13 13 12 15 13 16 19 17 17 17 20 20 19 18 17 17 17 17 17 17 17 18 20 22 24 26 29 31 34 36 39 40 41 42 42 41 40 39 39 38 37 36 36 35 35 35 35
15 14 13 16 16 19 19 20 19 19 20 20 22 20 19 18 18 18 19 19 19 19 20 21 23 25 27 30 32 34 36 39 41 41 41 42 42 41 41 40 40 39 38 37 36 35 35 35 36
16 16 17 18 19 20 20 23 25 24 20 20 18 18 20 20 20 21 21 22 22 22 23 25 27 29 31 33 35 37 39 40 40 41 42 42 42 42 41 41 41 40 39 38 37 36 37 36 37
18 17 15 16 18 20 20 22 22 20 20 19 20 21 21 22 23 24 24 24 25 25 27 28 30 31 34 36 37 38 39 41 42 42 43 42 43 43 43 42 42 42 40 38 37 37 37 38 39
20 20 18 19 19 20 22 23 19 20 21 23 24 24 24 25 26 27 27 27 27 29 30 31 32 34 36 37 38 39 41 42 43 43 43 43 43 43 44 44 43 42 40 39 38 38 37 38 39
24 26 23 23 23 23 24 36 23 25 26 25 26 26 27 28 29 29 29 29 31 32 32 33 34 36 37 38 39 41 42 43 43 44 45 45 46 45 45 44 43 42 41 40 39 38 38 37 37
Wind_Direction
246 217 211 211 202 178 219 221 187 202 211 221 175 267 232 292 252 271 233 195 181 171 178 184 188 188 187 184 181 180 178 175 171 159 53 16 12 6 6 5 4 1 359 358 1 3 359 355 350
227 193 191 183 159 159 216 204 225 224 164 134 116 4 347 328 283 210 155 179 172 176 179 184 187 188 189 189 192 194 198 202 210 224 273 323 337 338 340 343 345 346 345 343 345 345 345 344 341
189 185 176 164 165 182 208 214 240 167 160 6 331 335 327 303 281 177 202 173 168 170 175 179 182 184 188 191 195 200 205 209 215 227 261 289 308 318 326 327 328 326 324 322 320 322 325 328 324
164 169 165 156 200 229 216 234 218 183 270 295 285 327 316 331 176 190 165 165 161 161 164 173 178 181 187 192 198 204 211 217 226 239 256 270 285 294 301 307 309 308 308 305 302 303 305 308 309
140 152 147 142 223 234 225 217 194 213 267 279 300 268 231 173 171 156 161 159 154 155 156 165 177 190 197 205 209 214 220 226 235 245 255 264 273 280 287 292 295 295 297 296 294 292 293 296 297
140 149 145 180 241 240 235 233 224 221 258 287 332 140 163 169 135 148 153 158 162 162 169 182 196 203 206 212 219 225 231 238 245 251 260 266 272 277 283 286 287 290 291 291 289 289 290 290 289
155 146 187 204 218 257 239 289 266 258 244 266 189 136 230 188 168 159 162 170 189 201 205 213 220 215 215 221 226 231 239 246 251 258 263 268 274 278 282 284 285 286 286 288 287 286 285 284 282
182 176 181 217 217 229 263 318 264 263 249 240 188 233 250 214 179 174 179 193 207 223 233 236 232 228 228 234 237 244 250 255 259 263 267 271 275 278 281 284 283 282 283 285 285 284 282 281 278
208 197 218 226 224 257 270 308 286 277 242 242 248 261 281 196 196 199 201 201 227 241 247 245 242 240 242 245 246 252 257 260 265 268 270 273 276 278 282 284 283 282 282 283 284 283 281 278 275
219 215 226 225 260 268 275 270 269 280 273 265 265 265 244 202 205 210 217 228 250 253 256 253 252 250 248 251 255 258 262 266 268 271 273 275 277 279 282 283 283 282 282 282 282 282 280 277 274
232 230 240 254 262 274 268 268 254 269 270 256 257 254 243 227 222 226 236 246 255 262 264 262 263 257 254 257 258 262 267 269 272 274 276 278 279 281 282 284 285 283 282 281 281 280 279 277 274
249 244 249 254 259 274 271 270 262 258 263 271 264 252 242 236 235 236 242 252 262 265 262 265 264 259 259 260 262 265 269 272 274 276 278 280 281 283 283 284 285 285 285 284 281 280 278 277 275
251 255 254 260 268 266 272 270 264 264 270 273 261 249 245 244 244 247 252 259 259 259 263 264 264 264 265 268 268 269 272 275 277 279 281 281 282 285 285 286 286 286 286 285 283 280 277 275 274
260 262 266 266 264 267 267 268 259 266 263 262 256 253 250 246 246 246 251 257 258 256 259 265 262 266 272 275 274 275 276 278 279 281 283 284 285 287 288 288 288 287 286 284 281 280 277 275 273
264 270 272 267 268 267 269 271 260 259 258 261 256 258 254 251 246 245 249 255 258 259 259 258 264 269 275 279 282 282 282 281 281 284 286 288 289 290 291 289 289 287 286 284 281 279 278 275 273
267 266 272 268 275 277 268 276 275 271 255 258 264 264 256 250 251 253 256 258 260 259 257 259 265 268 274 278 283 286 289 284 284 288 291 292 293 294 294 292 291 289 286 284 282 278 277 276 274
266 259 261 273 270 279 270 269 260 273 272 272 277 267 261 259 259 258 260 260 261 260 258 259 262 268 273 276 280 284 289 287 287 290 293 295 295 296 296 296 294 292 291 287 284 281 279 277 273
257 264 265 261 266 275 270 266 269 269 270 273 275 273 268 264 264 267 268 264 261 259 258 257 262 267 273 276 279 283 286 288 289 292 295 296 298 298 298 297 295 293 291 289 286 283 281 277 275
261 261 263 264 268 271 265 266 268 273 274 275 276 273 271 270 272 273 274 270 261 259 257 257 258 264 270 273 278 283 287 290 290 293 296 297 299 300 300 299 298 295 293 291 288 285 281 278 274
252 259 263 270 267 269 274 270 272 272 271 271 274 275 273 270 270 272 274 272 265 260 258 257 258 264 269 274 279 286 290 292 294 298 299 301 301 301 301 300 298 295 294 291 288 285 282 279 273
251 247 258 261 277 276 280 275 273 275 278 280 278 280 273 271 273 276 274 269 266 261 258 257 259 264 268 274 280 287 292 294 297 299 301 302 302 302 301 300 297 295 292 290 288 284 280 278 273
255 250 255 260 275 272 279 273 278 280 284 280 276 281 279 278 280 278 275 272 268 264 260 259 261 265 269 275 280 286 290 293 296 300 302 303 303 303 303 301 299 295 293 291 289 285 281 277 275
245 255 261 264 269 282 273 274 271 281 285 279 278 282 284 284 279 273 274 273 272 268 264 263 264 267 272 277 281 286 290 293 297 300 301 302 303 303 303 302 299 296 294 292 288 285 280 276 274
251 260 273 275 274 274 273 263 276 274 270 280 284 285 283 283 277 273 272 272 273 272 268 267 267 271 275 278 282 286 289 293 297 299 300 301 302 302 301 301 299 297 295 293 289 286 281 278 274
253 266 276 278 273 266 277 272 270 274 274 282 288 284 283 280 273 268 267 269 271 270 269 269 272 274 277 280 284 287 290 293 296 298 299 301 302 301 299 299 299 297 295 292 289 285 281 279 276
252 248 252 266 269 274 282 270 273 272 284 289 287 284 280 274 270 268 269 270 270 270 271 274 277 279 280 283 285 288 291 294 296 298 299 301 301 300 300 299 298 296 294 291 289 284 282 280 279
256 254 261 269 276 280 271 277 280 278 284 290 285 284 274 268 268 269 272 271 271 272 275 278 280 282 284 285 287 290 292 294 295 297 299 301 302 301 300 297 296 295 293 290 287 284 282 281 280
253 252 264 271 277 277 279 278 272 282 285 284 285 282 275 270 270 271 273 271 271 275 278 280 282 283 287 288 289 290 292 293 295 297 300 301 303 302 299 296 294 294 292 289 286 284 283 282 282
254 255 261 263 260 273 286 276 276 281 285 283 285 282 273 270 272 273 272 271 273 277 278 281 282 285 288 289 290 291 293 295 296 297 299 301 302 302 299 296 294 292 290 288 286 284 284 285 285
255 252 252 256 265 268 272 278 282 282 286 287 288 282 278 274 274 274 273 272 275 277 280 281 284 287 289 290 291 293 294 296 297 297 298 300 299 299 299 296 294 292 290 286 284 283 283 284 285